Wildwood, NJ

1:11 PM EDT on July 26, 2017 (GMT -0400)
Cape May County

Weather History for KWWD - November, 2012

Change the Weather History Date:

Sunday, November 18, 2012

  Actual Average Record
Temperature  
Mean Temperature 46 °F -  
Max Temperature 53 °F 52 °F 66 °F (2013)
Min Temperature 39 °F 38 °F 26 °F (1997)
Degree Days  
Heating Degree Days 19    
Moisture  
Dew Point 38 °F    
Average Humidity 71    
Maximum Humidity 87    
Minimum Humidity 58    
Precipitation  
Precipitation 0.00 in - - ()
Sea Level Pressure  
Sea Level Pressure 30.52 in    
Wind  
Wind Speed 10 mph (NNE)    
Max Wind Speed 20 mph    
Max Gust Speed 28 mph    
Visibility 10 miles    
Events      
Averages and records for this station are not official NWS values.
T = Trace of Precipitation, MM = Missing Value Source: NWS Daily Summary

Daily Weather History Graph

Daily Weather History Graph

Search for Another Location

Airport or City:

Trip Planner

Search our weather history database for the weather conditions in past years. The results will help you decide how hot, cold, wet, or windy it might be!

Date:

Astronomy

Nov. 18, 2012 Rise Set
Actual Time 6:46 AM EST 4:43 PM EST
Civil Twilight 6:17 AM EST 5:11 PM EST
Nautical Twilight 5:45 AM EST 5:44 PM EST
Astronomical Twilight 5:13 AM EST 6:16 PM EST
Moon 11:12 AM EST (11/18) 9:59 PM EST (11/18)
Length of Visible Light 10h 54m
Length of Day
9h 56m
Waxing Crescent, 30% of the Moon is Illuminated
Nov 18
Waxing Crescent
Nov 20
First Quarter
Nov 28
Full
Dec 6
Last Quarter
Dec 13
New

Hourly Weather History & Observations

Time (EST) Temp. Windchill Dew Point Humidity Pressure Visibility Wind Dir Wind Speed Gust Speed Precip Events Conditions
12:15 AM 42.8 °F 37.0 °F 35.6 °F 76% 30.55 in 10.0 mi North 10.4 mph - N/A   Clear
12:35 AM 42.8 °F 38.6 °F 35.6 °F 76% 30.55 in 10.0 mi NNE 6.9 mph - N/A   Clear
12:55 AM 42.8 °F 39.3 °F 35.6 °F 76% 30.55 in 10.0 mi NNE 5.8 mph - N/A   Clear
1:15 AM 41.0 °F 37.1 °F 35.6 °F 81% 30.55 in 10.0 mi North 5.8 mph - N/A   Clear
1:35 AM 39.2 °F 34.2 °F 33.8 °F 81% 30.55 in 10.0 mi North 6.9 mph - N/A   Clear
1:55 AM 39.2 °F 35.0 °F 35.6 °F 87% 30.55 in 10.0 mi North 5.8 mph - N/A   Clear
2:15 AM 39.2 °F 34.2 °F 35.6 °F 87% 30.56 in 10.0 mi North 6.9 mph - N/A   Clear
2:35 AM 39.2 °F 34.2 °F 33.8 °F 81% 30.55 in 10.0 mi NNE 6.9 mph - N/A   Clear
2:55 AM 39.2 °F 33.6 °F 33.8 °F 81% 30.55 in 10.0 mi North 8.1 mph - N/A   Clear
3:15 AM 39.2 °F 33.6 °F 35.6 °F 87% 30.55 in 10.0 mi NNE 8.1 mph - N/A   Clear
3:35 AM 39.2 °F 33.0 °F 33.8 °F 81% 30.54 in 10.0 mi NNE 9.2 mph - N/A   Clear
3:55 AM 39.2 °F 33.6 °F 33.8 °F 81% 30.55 in 10.0 mi NNE 8.1 mph - N/A   Clear
4:15 AM 39.2 °F 33.0 °F 33.8 °F 81% 30.55 in 10.0 mi NNE 9.2 mph - N/A   Clear
4:35 AM 39.2 °F 33.6 °F 33.8 °F 81% 30.55 in 10.0 mi NNE 8.1 mph - N/A   Clear
4:55 AM 39.2 °F 33.6 °F 33.8 °F 81% 30.56 in 10.0 mi NNE 8.1 mph - N/A   Clear
5:15 AM 39.2 °F 33.6 °F 33.8 °F 81% 30.56 in 10.0 mi North 8.1 mph - N/A   Scattered Clouds
5:35 AM 39.2 °F 33.0 °F 33.8 °F 81% 30.56 in 10.0 mi NNE 9.2 mph - N/A   Mostly Cloudy
5:55 AM 41.0 °F 35.2 °F 35.6 °F 81% 30.56 in 10.0 mi NNE 9.2 mph - N/A   Mostly Cloudy
6:15 AM 41.0 °F 36.4 °F 35.6 °F 81% 30.56 in 10.0 mi North 6.9 mph - N/A   Overcast
6:35 AM 42.8 °F 37.0 °F 35.6 °F 76% 30.56 in 10.0 mi North 10.4 mph - N/A   Overcast
7:15 AM 42.8 °F 37.5 °F 35.6 °F 76% 30.57 in 10.0 mi North 9.2 mph - N/A   Overcast
7:35 AM 42.8 °F 37.5 °F 35.6 °F 76% 30.57 in 10.0 mi North 9.2 mph - N/A   Overcast
7:55 AM 44.6 °F 40.2 °F 37.4 °F 76% 30.58 in 10.0 mi North 8.1 mph - N/A   Overcast
8:15 AM 44.6 °F 39.7 °F 37.4 °F 76% 30.58 in 10.0 mi North 9.2 mph - N/A   Overcast
8:35 AM 44.6 °F 39.7 °F 37.4 °F 76% 30.57 in 10.0 mi North 9.2 mph - N/A   Overcast
8:55 AM 46.4 °F 41.9 °F 37.4 °F 71% 30.57 in 10.0 mi North 9.2 mph - N/A   Overcast
9:15 AM 46.4 °F 41.5 °F 37.4 °F 71% 30.57 in 10.0 mi North 10.4 mph - N/A   Overcast
9:35 AM 48.2 °F - 37.4 °F 66% 30.57 in 10.0 mi NNE 10.4 mph - N/A   Overcast
9:55 AM 50.0 °F - 39.2 °F 66% 30.56 in 10.0 mi NNE 12.7 mph - N/A   Scattered Clouds
10:15 AM 51.8 °F - 39.2 °F 62% 30.56 in 10.0 mi NE 12.7 mph 20.7 mph N/A   Clear
10:35 AM 51.8 °F - 37.4 °F 58% 30.56 in 10.0 mi NE 15.0 mph 19.6 mph N/A   Mostly Cloudy
10:55 AM 53.6 °F - 39.2 °F 58% 30.55 in 10.0 mi NE 16.1 mph 24.2 mph N/A   Scattered Clouds
11:15 AM 53.6 °F - 39.2 °F 58% - 10.0 mi NE 18.4 mph 24.2 mph N/A   Mostly Cloudy
11:35 AM 53.6 °F - 39.2 °F 58% - 10.0 mi NE 16.1 mph 25.3 mph N/A   Overcast
11:55 AM 53.6 °F - 39.2 °F 58% - 10.0 mi NE 18.4 mph 24.2 mph N/A   Overcast
12:15 PM 51.8 °F - 39.2 °F 62% - 10.0 mi NE 19.6 mph 25.3 mph N/A   Overcast
12:35 PM 51.8 °F - 39.2 °F 62% 30.51 in 10.0 mi NE 16.1 mph 25.3 mph N/A   Overcast
12:55 PM 51.8 °F - 39.2 °F 62% 30.50 in 10.0 mi NE 19.6 mph 24.2 mph N/A   Overcast
1:15 PM 51.8 °F - 39.2 °F 62% 30.50 in 10.0 mi NE 16.1 mph 27.6 mph N/A   Overcast
1:35 PM 53.6 °F - 39.2 °F 58% 30.49 in 10.0 mi NE 16.1 mph 23.0 mph N/A   Overcast
1:55 PM 51.8 °F - 39.2 °F 62% 30.50 in 10.0 mi NE 16.1 mph 21.9 mph N/A   Overcast
2:15 PM 51.8 °F - 39.2 °F 62% 30.50 in 10.0 mi NNE 12.7 mph 24.2 mph N/A   Overcast
2:35 PM 51.8 °F - 39.2 °F 62% 30.50 in 10.0 mi NNE 15.0 mph 25.3 mph N/A   Overcast
2:55 PM 51.8 °F - 39.2 °F 62% 30.50 in 10.0 mi NE 16.1 mph 23.0 mph N/A   Overcast
3:15 PM 51.8 °F - 39.2 °F 62% 30.50 in 10.0 mi NNE 12.7 mph 21.9 mph N/A   Overcast
3:35 PM 51.8 °F - 39.2 °F 62% 30.50 in 10.0 mi NNE 15.0 mph 21.9 mph N/A   Overcast
3:55 PM 51.8 °F - 39.2 °F 62% 30.50 in 10.0 mi NE 12.7 mph 21.9 mph N/A   Overcast
4:15 PM 50.0 °F - 39.2 °F 66% 30.50 in 10.0 mi NE 17.3 mph 23.0 mph N/A   Overcast
4:35 PM 50.0 °F - 39.2 °F 66% 30.50 in 10.0 mi NE 10.4 mph - N/A   Overcast
4:55 PM 50.0 °F - 39.2 °F 66% 30.50 in 10.0 mi NE 15.0 mph 19.6 mph N/A   Overcast
5:15 PM 50.0 °F - 37.4 °F 62% 30.49 in 10.0 mi NNE 13.8 mph 20.7 mph N/A   Overcast
5:35 PM 50.0 °F - 37.4 °F 62% 30.50 in 10.0 mi NNE 15.0 mph 23.0 mph N/A   Overcast
5:55 PM 50.0 °F - 37.4 °F 62% 30.50 in 10.0 mi NNE 12.7 mph 19.6 mph N/A   Overcast
6:15 PM 48.2 °F - 39.2 °F 71% 30.50 in 10.0 mi NNE 15.0 mph 19.6 mph N/A   Overcast
6:35 PM 50.0 °F - 39.2 °F 66% 30.50 in 10.0 mi NNE 16.1 mph - N/A   Overcast
6:55 PM 50.0 °F - 39.2 °F 66% 30.50 in 10.0 mi NE 15.0 mph 20.7 mph N/A   Overcast
7:15 PM 50.0 °F - 39.2 °F 66% 30.49 in 10.0 mi NNE 17.3 mph 21.9 mph N/A   Overcast
7:35 PM 50.0 °F - 39.2 °F 66% 30.50 in 10.0 mi NNE 13.8 mph 21.9 mph N/A   Overcast
7:55 PM 48.2 °F - 39.2 °F 71% 30.49 in 10.0 mi NNE 12.7 mph 18.4 mph N/A   Mostly Cloudy
8:15 PM 48.2 °F - 39.2 °F 71% 30.48 in 10.0 mi North 11.5 mph - N/A   Partly Cloudy
8:35 PM 48.2 °F - 39.2 °F 71% 30.49 in 10.0 mi NNE 9.2 mph - N/A   Clear
8:55 PM 48.2 °F - 39.2 °F 71% 30.48 in 10.0 mi NNE 8.1 mph - N/A   Clear
9:15 PM 46.4 °F 42.4 °F 39.2 °F 76% 30.48 in 10.0 mi NNE 8.1 mph - N/A   Clear
9:35 PM 46.4 °F 42.4 °F 39.2 °F 76% 30.48 in 10.0 mi NNE 8.1 mph - N/A   Clear
9:55 PM 46.4 °F 42.4 °F 39.2 °F 76% 30.47 in 10.0 mi NNE 8.1 mph - N/A   Clear
10:15 PM 46.4 °F 41.5 °F 39.2 °F 76% 30.46 in 10.0 mi NNE 10.4 mph - N/A   Clear
10:35 PM 46.4 °F 41.9 °F 39.2 °F 76% 30.45 in 10.0 mi NNE 9.2 mph - N/A   Clear
10:55 PM 46.4 °F 41.9 °F 39.2 °F 76% 30.45 in 10.0 mi North 9.2 mph - N/A   Clear
11:35 PM 46.4 °F 41.9 °F 39.2 °F 76% 30.45 in 10.0 mi North 9.2 mph - N/A   Clear